EW6618 Weather Reports


Display with metric or nautical units.
time (UTC)temp
F
wind
direction
speed
MPH
gust
MPH
rain 1hr
in
rain 24hr
in
rain mn
in
humidity
%
barometer
mb
20260506160157 66 262 1.0 4.0 0.00 0.00 0.00 75 1018.8
20260506155210 66 352 1.0 3.0 0.00 0.00 0.00 76 1018.8
20260506154224 65 179 1.0 2.0 0.00 0.00 0.00 76 1018.8
20260506153236 64 100 0.0 1.0 0.00 0.00 0.00 77 1018.8
20260506152248 64 126 0.0 4.0 0.00 0.00 0.00 78 1018.7
20260506151241 63 239 0.0 4.0 0.00 0.00 0.00 80 1018.9
20260506150227 62 98 0.0 3.0 0.00 0.00 0.00 82 1018.9
20260506145227 61 67 1.0 4.0 0.00 0.00 0.00 83 1018.9
20260506144219 60 70 1.0 3.0 0.00 0.00 0.00 84 1018.8
20260506143205 59 92 0.0 2.0 0.00 0.00 0.00 85 1018.7
20260506142142 58 84 1.0 3.0 0.00 0.00 0.00 87 1018.7
20260506141144 58 80 1.0 3.0 0.00 0.00 0.00 88 1018.6
20260506140159 57 78 1.0 3.0 0.00 0.00 0.00 88 1018.5
20260506135152 56 70 0.0 2.0 0.00 0.00 0.00 88 1018.5
20260506133047 56 79 1.0 3.0 0.00 0.00 0.00 88 1018.3
20260506130916 56 72 1.0 2.0 0.00 0.00 0.00 88 1018.3
20260506125855 56 73 0.0 2.0 0.00 0.00 0.00 88 1018.0
20260506124825 56 84 0.0 0.0 0.00 0.00 0.00 87 1017.9
20260506123826 56 78 0.0 1.0 0.00 0.00 0.00 87 1018.0
20260506122801 56 79 0.0 2.0 0.00 0.00 0.00 87 1017.7
20260506121729 56 75 0.0 2.0 0.00 0.00 0.00 87 1017.7
20260506120711 56 86 0.0 1.0 0.00 0.00 0.00 86 1017.8
20260506115723 56 84 0.0 1.0 0.00 0.00 0.00 86 1017.7
20260506114737 57 65 0.0 0.0 0.00 0.00 0.00 86 1017.6
20260506113707 57 85 0.0 2.0 0.00 0.00 0.00 86 1017.6
20260506111555 57 108 0.0 2.0 0.00 0.00 0.00 88 1017.5
20260506110555 56 104 0.0 0.0 0.00 0.00 0.00 88 1017.5
20260506105543 57 104 0.0 0.0 0.00 0.00 0.00 87 1017.6
20260506104513 57 104 0.0 0.0 0.00 0.00 0.00 87 1017.6
20260506100048 58 104 0.0 0.0 0.00 0.00 0.00 88 1017.5
20260506095043 58 104 0.0 0.0 0.00 0.00 0.00 88 1017.6
20260506094106 58 104 0.0 0.0 0.00 0.00 0.00 88 1017.6
20260506093058 58 128 0.0 0.0 0.00 0.00 0.00 88 1017.6
20260506090953 59 95 0.0 0.0 0.00 0.00 0.00 88 1017.7
20260506084831 59 108 0.0 0.0 0.00 0.00 0.00 88 1017.9
20260506083757 59 101 0.0 3.0 0.00 0.00 0.00 87 1018.0
20260506082733 59 141 0.0 3.0 0.00 0.00 0.00 88 1018.0
20260506081701 59 105 1.0 5.0 0.00 0.00 0.00 87 1018.0
20260506080718 59 150 1.0 5.0 0.00 0.00 0.00 87 1018.0
20260506072603 59 153 1.0 3.0 0.00 0.00 0.00 86 1018.0
20260506070423 59 139 1.0 6.0 0.00 0.00 0.00 86 1017.9
20260506062325 60 75 1.0 4.0 0.00 0.00 0.00 87 1017.5
20260506061255 60 117 1.0 3.0 0.00 0.00 0.00 87 1017.4
20260506060228 59 141 0.0 3.0 0.00 0.00 0.00 86 1017.5
20260506051228 60 229 1.0 4.0 0.00 0.00 0.00 85 1017.1
20260506050221 60 223 1.0 4.0 0.00 0.00 0.00 85 1017.0
20260506044214 60 131 0.0 3.0 0.00 0.00 0.00 84 1016.6
20260506043213 59 259 0.0 0.0 0.00 0.00 0.00 84 1016.5
20260506042202 59 259 0.0 0.0 0.00 0.00 0.00 84 1016.5
20260506040018 60 259 0.0 0.0 0.00 0.00 0.00 83 1016.3
20260506034945 60 259 0.0 0.0 0.00 0.00 0.00 82 1016.1
20260506033916 60 269 0.0 1.0 0.00 0.00 0.00 82 1016.0
20260506032904 61 260 1.0 3.0 0.00 0.00 0.00 81 1015.8
20260506031900 61 260 1.0 3.0 0.00 0.00 0.00 80 1015.8
20260506030844 61 289 1.0 4.0 0.00 0.00 0.00 80 1015.7
20260506025817 61 283 2.0 6.0 0.00 0.00 0.00 79 1015.5
20260506024758 61 281 4.0 6.0 0.00 0.00 0.00 78 1015.4
20260506023814 62 248 3.0 5.0 0.00 0.00 0.00 78 1015.1
20260506022752 62 84 3.0 6.0 0.00 0.00 0.00 77 1015.1
20260506021800 63 250 4.0 7.0 0.00 0.00 0.00 76 1015.1
20260506020738 63 307 4.0 8.0 0.00 0.00 0.00 75 1015.0
20260506015722 64 217 5.0 9.0 0.00 0.00 0.00 76 1014.9
20260506014729 64 184 6.0 9.0 0.00 0.00 0.00 76 1014.8
20260506012614 63 217 4.0 9.0 0.00 0.00 0.00 77 1014.8
20260506011602 63 108 4.0 6.0 0.00 0.00 0.00 76 1014.8
20260506010531 63 352 3.0 6.0 0.00 0.00 0.00 75 1014.8
20260506005517 63 253 4.0 7.0 0.00 0.00 0.00 75 1014.7
20260506004535 63 188 5.0 8.0 0.00 0.00 0.00 75 1014.7
20260506003518 63 238 6.0 8.0 0.00 0.00 0.00 74 1014.8
20260506002509 64 198 6.0 10.0 0.00 0.00 0.00 73 1014.7
20260506001524 64 227 6.0 10.0 0.00 0.00 0.00 72 1014.8
20260506000452 64 262 6.0 8.0 0.00 0.00 0.00 71 1014.7
20260505235506 64 240 6.0 8.0 0.00 0.00 0.00 72 1014.7
20260505234520 63 242 6.0 10.0 0.00 0.00 0.00 73 1014.7
20260505233512 63 347 6.0 10.0 0.00 0.00 0.00 71 1014.8
20260505232532 64 265 6.0 8.0 0.00 0.00 0.00 71 1014.8
20260505231506 64 217 7.0 9.0 0.00 0.00 0.00 70 1014.9
20260505230500 65 236 7.0 10.0 0.00 0.00 0.00 67 1014.9
20260505225435 66 230 8.0 13.0 0.00 0.00 0.00 65 1014.9
20260505224424 65 125 8.0 13.0 0.00 0.00 0.00 67 1015.0
20260505223350 65 219 7.0 10.0 0.00 0.00 0.00 65 1015.2
20260505222350 65 56 7.0 9.0 0.00 0.00 0.00 66 1015.3
20260505221400 65 127 7.0 9.0 0.00 0.00 0.00 65 1015.4
20260505220333 65 172 7.0 11.0 0.00 0.00 0.00 66 1015.4
20260505215356 65 134 8.0 11.0 0.00 0.00 0.00 69 1015.4
20260505214406 64 283 7.0 11.0 0.00 0.00 0.00 68 1015.5
20260505213408 65 266 6.0 10.0 0.00 0.00 0.00 67 1015.5
20260505212405 65 215 7.0 10.0 0.00 0.00 0.00 67 1015.7
20260505211408 64 262 7.0 14.0 0.00 0.00 0.00 69 1015.6
20260505210403 63 6 8.0 14.0 0.00 0.00 0.00 72 1015.7
20260505203034 63 255 8.0 13.0 0.00 0.00 0.00 72 1015.6
20260505202039 64 205 8.0 13.0 0.00 0.00 0.00 72 1015.6
20260505194723 64 214 8.0 13.0 0.00 0.00 0.00 71 1015.7
20260505193740 63 285 9.0 17.0 0.00 0.00 0.00 72 1015.8
20260505192734 63 261 10.0 17.0 0.00 0.00 0.00 72 1015.9
20260505191704 63 244 9.0 14.0 0.00 0.00 0.00 72 1015.9
20260505190635 63 233 8.0 14.0 0.00 0.00 0.00 70 1016.0
20260505185611 63 267 9.0 14.0 0.00 0.00 0.00 73 1015.9
20260505183424 63 259 9.0 15.0 0.00 0.00 0.00 73 1016.0
20260505182350 63 252 9.0 15.0 0.00 0.00 0.00 74 1015.9
20260505181343 62 250 9.0 14.0 0.00 0.00 0.00 76 1015.8
20260505180328 62 292 9.0 14.0 0.00 0.00 0.00 75 1015.8
20260505173051 61 316 9.0 14.0 0.00 0.00 0.00 79 1015.4
20260505172116 61 252 8.0 14.0 0.00 0.00 0.00 78 1015.5
20260505171126 61 271 7.0 11.0 0.00 0.00 0.00 80 1015.3
20260505170150 60 324 7.0 11.0 0.00 0.00 0.00 81 1015.3
20260505165155 60 356 8.0 11.0 0.00 0.00 0.00 81 1015.3
20260505164148 61 243 6.0 11.0 0.00 0.00 0.00 80 1015.1
20260505162053 61 342 6.0 13.0 0.00 0.00 0.00 81 1014.9
20260505161103 60 230 6.0 13.0 0.00 0.00 0.00 81 1014.8